Change the Weather History Date:

Saturday, July 6, 2013

  Actual Average (KRNO) Record (KRNO)
Temperature  
Mean Temperature 68 °F 74 °F  
Max Temperature 87 °F 91 °F 101 °F (2014)
Min Temperature 50 °F 57 °F 34 °F (1961)
Degree Days  
Heating Degree Days 0 0  
Month to date heating degree days 0  
Since 1 June heating degree days 56  
Since 1 July heating degree days 0  
Cooling Degree Days 4 9  
Month to date cooling degree days 50  
Year to date cooling degree days 223  
Since 1 June cooling degree days 186  
Growing Degree Days 18 (Base 50)    
Moisture  
Dew Point 32 °F    
Average Humidity 29    
Maximum Humidity 66    
Minimum Humidity 11    
Precipitation  
Precipitation 0.00 in 0.00 in 0.04 in (1978)
Month to date precipitation 0.03  
Year to date precipitation 4.31  
Snow  
Snow 0.00 in 0.00 in 0.00 in ()
Month to date snowfall 0.0  
Since 1 June snowfall T  
Since 1 July snowfall 0.0  
Snow Depth -    
Sea Level Pressure  
Sea Level Pressure 29.96 in    
Wind  
Wind Speed 7 mph (West)    
Max Wind Speed 22 mph    
Max Gust Speed 30 mph    
Visibility 10 miles    
Events Rain    
T = Trace of Precipitation, MM = Missing Value Source: NWS Daily Summary

Daily Weather History Graph

Daily Weather History Graph

Search for Another Location

Airport or City:

Trip Planner

Search our weather history database for the weather conditions in past years. The results will help you decide how hot, cold, wet, or windy it might be!

Date:

Astronomy

Jul. 06, 2013 Rise Set
Actual Time 5:38 AM PDT 8:30 PM PDT
Civil Twilight 5:06 AM PDT 9:02 PM PDT
Nautical Twilight 4:25 AM PDT 9:42 PM PDT
Astronomical Twilight 3:38 AM PDT 10:29 PM PDT
Moon 4:28 AM PDT (7/6) 7:15 PM PDT (7/6)
Length of Visible Light 15h 56m
Length of Day
14h 51m
Waning Crescent, 2% of the Moon is Illuminated
Jul 6
Waning Crescent
Jul 8
New
Jul 15
First Quarter
Jul 22
Full
Jul 29
Last Quarter

Hourly Weather History & Observations

Time (PDT) Temp. Dew Point Humidity Pressure Visibility Wind Dir Wind Speed Gust Speed Precip Events Conditions
12:15 AM 62.6 °F 39.2 °F 42% 29.97 in 10.0 mi West 6.9 mph - N/A   Clear
12:35 AM 59.0 °F 41.0 °F 51% 29.97 in 10.0 mi West 5.8 mph - N/A   Clear
12:55 AM 60.8 °F 39.2 °F 45% 29.97 in 10.0 mi NNW 6.9 mph - N/A   Clear
1:15 AM 64.4 °F 35.6 °F 34% 29.97 in 10.0 mi NW 4.6 mph - N/A   Clear
1:35 AM 57.2 °F 39.2 °F 51% 29.96 in 10.0 mi NNW 5.8 mph - N/A   Clear
1:55 AM 57.2 °F 39.2 °F 51% 29.96 in 10.0 mi NW 8.1 mph - N/A   Clear
2:15 AM 57.2 °F 37.4 °F 48% 29.96 in 10.0 mi NW 10.4 mph - N/A   Clear
2:35 AM 59.0 °F 37.4 °F 45% 29.96 in 10.0 mi NNW 9.2 mph - N/A   Clear
2:55 AM 57.2 °F 37.4 °F 48% 29.96 in 10.0 mi NNW 11.5 mph - N/A   Clear
3:15 AM 55.4 °F 37.4 °F 51% 29.96 in 10.0 mi NNW 8.1 mph - N/A   Clear
3:35 AM 55.4 °F 35.6 °F 47% 29.96 in 10.0 mi North 3.5 mph - N/A   Clear
3:55 AM 57.2 °F 35.6 °F 44% 29.96 in 10.0 mi ENE 4.6 mph - N/A   Clear
4:15 AM 57.2 °F 37.4 °F 48% 29.96 in 10.0 mi NE 5.8 mph - N/A   Clear
4:35 AM 57.2 °F 37.4 °F 48% 29.96 in 10.0 mi Calm Calm - N/A   Clear
4:55 AM 50.0 °F 39.2 °F 66% 29.97 in 10.0 mi WNW 4.6 mph - N/A   Clear
5:15 AM 51.8 °F 37.4 °F 58% 29.97 in 10.0 mi NNW 8.1 mph - N/A   Clear
5:35 AM 51.8 °F 37.4 °F 58% 29.97 in 10.0 mi North 4.6 mph - N/A   Clear
5:55 AM 51.8 °F 39.2 °F 62% 29.97 in 10.0 mi Calm Calm - N/A   Clear
6:15 AM 50.0 °F 39.2 °F 66% 29.97 in 10.0 mi NW 4.6 mph - N/A   Clear
6:35 AM 53.6 °F 39.2 °F 58% 29.98 in 10.0 mi North 4.6 mph - N/A   Clear
6:55 AM 57.2 °F 37.4 °F 48% 29.97 in 10.0 mi NNW 3.5 mph - N/A   Clear
7:15 AM 59.0 °F 37.4 °F 45% 29.98 in 10.0 mi Calm Calm - N/A   Clear
7:35 AM 62.6 °F 37.4 °F 39% 29.98 in 10.0 mi Calm Calm - N/A   Clear
7:55 AM 64.4 °F 41.0 °F 42% 29.98 in 10.0 mi Calm Calm - N/A   Clear
8:15 AM 66.2 °F 41.0 °F 40% 29.99 in 10.0 mi Calm Calm - N/A   Clear
8:35 AM 68.0 °F 39.2 °F 35% 29.99 in 10.0 mi Calm Calm - N/A   Clear
8:55 AM 71.6 °F 37.4 °F 29% 29.99 in 10.0 mi Calm Calm - N/A   Clear
9:15 AM 73.4 °F 33.8 °F 23% 29.99 in 10.0 mi Calm Calm - N/A   Clear
9:35 AM 73.4 °F 32.0 °F 22% 29.98 in 10.0 mi SE 3.5 mph - N/A   Clear
9:55 AM 75.2 °F 30.2 °F 19% 29.98 in 10.0 mi Calm Calm - N/A   Clear
10:15 AM 77.0 °F 28.4 °F 17% 29.97 in 10.0 mi ESE 3.5 mph - N/A   Clear
10:35 AM 77.0 °F 32.0 °F 19% 29.98 in 10.0 mi ENE 4.6 mph - N/A   Clear
10:55 AM 78.8 °F 32.0 °F 18% 29.97 in 10.0 mi NE 5.8 mph - N/A   Clear
11:15 AM 80.6 °F 28.4 °F 15% 29.97 in 10.0 mi Calm Calm - N/A   Clear
11:35 AM 80.6 °F 28.4 °F 15% 29.97 in 10.0 mi NNE 6.9 mph - N/A Rain Light Rain
11:55 AM 80.6 °F 28.4 °F 15% 29.97 in 10.0 mi SSE 4.6 mph - N/A   Clear
12:15 PM 82.4 °F 28.4 °F 14% 29.96 in 10.0 mi Calm Calm - N/A   Clear
12:35 PM 84.2 °F 32.0 °F 15% 29.95 in 10.0 mi SSW 6.9 mph 19.6 mph N/A   Clear
12:55 PM 86.0 °F 30.2 °F 13% 29.95 in 10.0 mi SSW 9.2 mph 19.6 mph N/A   Clear
1:15 PM 86.0 °F 32.0 °F 14% 29.95 in 10.0 mi South 15.0 mph 20.7 mph N/A   Clear
1:35 PM 84.2 °F 32.0 °F 15% 29.95 in 10.0 mi SW 13.8 mph 21.9 mph N/A   Clear
1:55 PM 87.8 °F 30.2 °F 13% 29.94 in 10.0 mi SW 18.4 mph 29.9 mph N/A   Clear
2:15 PM 86.0 °F 28.4 °F 12% 29.94 in 10.0 mi SW 16.1 mph 23.0 mph N/A   Clear
2:35 PM 86.0 °F 28.4 °F 12% 29.94 in 10.0 mi West 20.7 mph 26.5 mph N/A   Clear
2:55 PM 87.8 °F 28.4 °F 12% 29.94 in 10.0 mi WSW 11.5 mph 28.8 mph N/A   Clear
3:15 PM 86.0 °F 28.4 °F 12% 29.93 in 10.0 mi WSW 21.9 mph 25.3 mph N/A   Clear
3:35 PM 86.0 °F 26.6 °F 12% 29.93 in 10.0 mi West 21.9 mph 29.9 mph N/A   Clear
3:55 PM 86.0 °F 26.6 °F 12% 29.93 in 10.0 mi WSW 16.1 mph 27.6 mph N/A   Clear
4:15 PM 86.0 °F 26.6 °F 12% 29.93 in 10.0 mi WSW 10.4 mph 26.5 mph N/A   Clear
4:35 PM 86.0 °F 26.6 °F 12% 29.93 in 10.0 mi WSW 17.3 mph 25.3 mph N/A   Clear
4:55 PM 86.0 °F 26.6 °F 12% 29.93 in 10.0 mi West 19.6 mph 25.3 mph N/A   Clear
5:15 PM 86.0 °F 24.8 °F 11% 29.92 in 10.0 mi West 19.6 mph 26.5 mph N/A   Clear
5:35 PM 84.2 °F 24.8 °F 11% 29.93 in 10.0 mi West 18.4 mph 25.3 mph N/A   Clear
5:55 PM 84.2 °F 24.8 °F 11% 29.93 in 10.0 mi WSW 17.3 mph 28.8 mph N/A   Clear
6:15 PM 84.2 °F 26.6 °F 12% 29.93 in 10.0 mi WSW 12.7 mph 24.2 mph N/A   Clear
6:35 PM 84.2 °F 26.6 °F 12% 29.93 in 10.0 mi West 12.7 mph 16.1 mph N/A   Clear
6:55 PM 82.4 °F 24.8 °F 12% 29.94 in 10.0 mi West 11.5 mph 25.3 mph N/A   Clear
7:15 PM 82.4 °F 24.8 °F 12% 29.94 in 10.0 mi West 18.4 mph 26.5 mph N/A   Clear
7:35 PM 80.6 °F 26.6 °F 14% 29.94 in 10.0 mi West 12.7 mph - N/A   Clear
7:55 PM 78.8 °F 26.6 °F 15% 29.95 in 10.0 mi WSW 16.1 mph 21.9 mph N/A   Clear
8:15 PM 77.0 °F 26.6 °F 16% 29.96 in 10.0 mi West 9.2 mph 18.4 mph N/A   Clear
8:35 PM 73.4 °F 30.2 °F 20% 29.96 in 10.0 mi West 13.8 mph - N/A   Clear
8:55 PM 73.4 °F 28.4 °F 19% 29.97 in 10.0 mi WSW 11.5 mph - N/A   Clear
9:15 PM 71.6 °F 28.4 °F 20% 29.98 in 10.0 mi WSW 10.4 mph - N/A   Clear
9:35 PM 69.8 °F 30.2 °F 23% 29.99 in 10.0 mi WSW 6.9 mph - N/A   Clear
9:55 PM 69.8 °F 28.4 °F 21% 30.00 in 10.0 mi SW 5.8 mph - N/A   Clear
10:15 PM 68.0 °F 30.2 °F 24% 30.00 in 10.0 mi SW 6.9 mph - N/A   Clear
10:35 PM 68.0 °F 28.4 °F 23% 30.00 in 10.0 mi WSW 9.2 mph - N/A   Clear
10:55 PM 62.6 °F 32.0 °F 32% 30.00 in 10.0 mi NW 4.6 mph - N/A   Clear
11:15 PM 62.6 °F 32.0 °F 32% 30.00 in 10.0 mi NNW 5.8 mph - N/A   Clear
11:35 PM 62.6 °F 32.0 °F 32% 30.00 in 10.0 mi NNW 5.8 mph - N/A   Clear
11:55 PM 62.6 °F 32.0 °F 32% 30.00 in 10.0 mi NW 6.9 mph - N/A   Clear